Location: Kaiser
(34.0939°N, 117.4889°W)
Time: 21:44:44
(UTC+00:00)

Cosmos 1400 Rocket - Pass Details

Date: 29 October 2020
Orbit: 521 x 568 km, 81.2° (Epoch: 25 November)

Event Time Altitude Azimuth Distance (km) Brightness Sun altitude
Rises 12:45:33 0° 351° (N) 2,681 6.2 -17.5°
Reaches altitude 10° 12:47:43 10° 351° (N) 1,780 5.3 -17.0°
Maximum altitude 12:51:38 85° 264° (W) 531 2.6 -16.2°
Drops below altitude 10° 12:55:29 10° 175° (S) 1,751 5.5 -15.4°
Sets 12:57:36 0° 174° (S) 2,632 6.5 -15.0°
